User: anonymous   Login
Location: Grums
(59.3529°N, 13.1129°E)
Time: 03:34:36
(UTC+01:00)
Language:

POLYITAN 1 - Orbit

View from above orbital plane
View from above orbital plane
View from above satellite
View from above satellite

Ground track
Ground track

The orbit data is extracted from the following two-line orbital elements,

1 40042U 14033AJ  21339.38639418  .00000996  00000-0  11034-3 0  9997
2 40042  97.9547 271.5793 0013981 333.3243  26.7253 14.89533010404759
Epoch (UTC): 05 December 2021 09:16:24
Eccentricity: 0.0013981
inclination: 97.9547°
perigee height: 589 km
apogee height: 609 km
right ascension of ascending node: 271.5793°
argument of perigee: 333.3243°
revolutions per day: 14.89533010
mean anomaly at epoch: 26.7253°
orbit number at epoch: 40475

The dashed part of the orbit path shows where the satellite is in the earth's shadow,  

DLR